Phuket, Thailand

2:48 PM +07 on April 28, 2017 (GMT +0700)
Phuket International

Weather History for VTSP - July, 2013

Change the Weather History Date:

Friday, July 19, 2013

  Actual Average Record
Temperature  
Mean Temperature 84 °F -  
Max Temperature 89 °F 87 °F 95 °F (1997)
Min Temperature 80 °F 78 °F 72 °F (2016)
Cooling Degree Days 20    
Growing Degree Days 34 (Base 50)    
Moisture  
Dew Point 75 °F    
Average Humidity 72    
Maximum Humidity 84    
Minimum Humidity 61    
Precipitation  
Precipitation 0.00 in 0.36 in - ()
Sea Level Pressure  
Sea Level Pressure 29.79 in    
Wind  
Wind Speed 8 mph ()    
Max Wind Speed 15 mph    
Max Gust Speed -    
Visibility 5.8 miles    
Events      
Averages and records for this station are not official NWS values.
T = Trace of Precipitation, MM = Missing Value Source: Averaged Metar Reports

Daily Weather History Graph

Daily Weather History Graph

Search for Another Location

Airport or City:

Trip Planner

Search our weather history database for the weather conditions in past years. The results will help you decide how hot, cold, wet, or windy it might be!

Date:

Astronomy

Jul. 19, 2013 Rise Set
Actual Time 6:16 AM +07 6:49 PM +07
Civil Twilight 5:54 AM +07 7:11 PM +07
Nautical Twilight 5:28 AM +07 7:37 PM +07
Astronomical Twilight 5:01 AM +07 8:04 PM +07
Moon 3:19 PM +07 (7/19) 2:24 AM +07 (7/19)
Length of Visible Light 13h 17m
Length of Day
12h 32m
Waxing Gibbous, 82% of the Moon is Illuminated
Jul 19
Waxing Gibbous
Jul 23
Full
Jul 30
Last Quarter
Aug 7
New
Aug 14
First Quarter

Hourly Weather History & Observations

Time (+07) Temp. Heat Index Dew Point Humidity Pressure Visibility Wind Dir Wind Speed Gust Speed Precip Events Conditions
12:00 AM 84.2 °F 92.3 °F 75.2 °F 74% 29.80 in 5.6 mi West 13.8 mph - N/A   Mostly Cloudy
1:00 AM 84 °F - 76 °F 70% 29.77 in 6 mi West 5.8 mph - -   Mist
1:00 AM 84.2 °F 90.9 °F 73.4 °F 70% 29.80 in 5.6 mi West 12.7 mph - N/A   Mostly Cloudy
1:30 AM 82.4 °F 88.2 °F 73.4 °F 74% 29.80 in 5.6 mi West 13.8 mph - N/A   Mostly Cloudy
2:00 AM 82.4 °F 88.2 °F 73.4 °F 74% 29.77 in 5.6 mi West 15.0 mph - N/A   Mostly Cloudy
2:30 AM 82.4 °F 88.2 °F 73.4 °F 74% 29.77 in 5.6 mi West 8.1 mph - N/A   Mostly Cloudy
3:00 AM 82.4 °F 88.2 °F 73.4 °F 74% 29.74 in 5.6 mi West 10.4 mph - N/A   Mostly Cloudy
4:00 AM 84.2 °F 90.9 °F 73.4 °F 70% 29.77 in 5.6 mi West 11.5 mph - N/A   Mostly Cloudy
5:00 AM 82.4 °F 88.2 °F 73.4 °F 74% 29.74 in 5.6 mi WSW 5.8 mph - N/A   Mostly Cloudy
6:00 AM 82.4 °F 88.2 °F 73.4 °F 74% 29.74 in 5.6 mi WSW 4.6 mph - N/A   Mostly Cloudy
7:00 AM 82.4 °F 88.2 °F 73.4 °F 74% 29.77 in 5.6 mi West 8.1 mph - N/A   Mostly Cloudy
7:30 AM 82.4 °F 88.2 °F 73.4 °F 74% 29.80 in 5.0 mi WSW 4.6 mph - N/A   Mostly Cloudy
8:00 AM 84.2 °F 90.9 °F 73.4 °F 70% 29.80 in 5.0 mi Variable 3.5 mph - N/A   Mostly Cloudy
8:30 AM 84.2 °F 90.9 °F 73.4 °F 70% 29.80 in 5.0 mi WSW 11.5 mph - N/A   Mostly Cloudy
9:00 AM 84.2 °F 92.3 °F 75.2 °F 74% 29.83 in 5.0 mi WSW 9.2 mph - N/A   Mostly Cloudy
9:30 AM 86.0 °F 95.1 °F 75.2 °F 70% 29.83 in 5.6 mi WSW 11.5 mph - N/A   Mostly Cloudy
10:00 AM 86.0 °F 95.1 °F 75.2 °F 70% 29.83 in 6.2 mi West 9.2 mph - N/A   Mostly Cloudy
10:30 AM 86.0 °F 95.1 °F 75.2 °F 70% 29.80 in 6.2 mi West 12.7 mph - N/A   Mostly Cloudy
11:00 AM 87.8 °F 97.6 °F 75.2 °F 66% 29.80 in 6.2 mi WSW 12.7 mph - N/A   Mostly Cloudy
11:30 AM 87.8 °F 97.6 °F 75.2 °F 66% 29.80 in 6.2 mi West 13.8 mph - N/A   Mostly Cloudy
12:30 PM 87.8 °F 97.6 °F 75.2 °F 66% 29.80 in 6.2 mi West 11.5 mph - N/A   Mostly Cloudy
1:00 PM 89 °F - 77 °F 61% 29.79 in 6 mi West 8.1 mph - -   Scattered Clouds
1:00 PM 87.8 °F 97.6 °F 75.2 °F 66% 29.80 in 6.2 mi West 11.5 mph - N/A   Mostly Cloudy
1:30 PM 87.8 °F 97.6 °F 75.2 °F 66% 29.77 in 6.2 mi West 13.8 mph - N/A   Mostly Cloudy
2:00 PM 87.8 °F 97.6 °F 75.2 °F 66% 29.77 in 6.2 mi West 15.0 mph - N/A   Mostly Cloudy
2:30 PM 86.0 °F 93.4 °F 73.4 °F 66% 29.77 in 6.2 mi WSW 11.5 mph - N/A   Mostly Cloudy
3:00 PM 86.0 °F 95.1 °F 75.2 °F 70% 29.74 in 6.2 mi West 11.5 mph - N/A   Mostly Cloudy
3:30 PM 86.0 °F 95.1 °F 75.2 °F 70% 29.74 in 6.2 mi West 11.5 mph - N/A   Mostly Cloudy
4:00 PM 86.0 °F 95.1 °F 75.2 °F 70% 29.74 in 6.2 mi WSW 8.1 mph - N/A   Mostly Cloudy
4:30 PM 84.2 °F 92.3 °F 75.2 °F 74% 29.74 in 6.2 mi WSW 10.4 mph - N/A   Mostly Cloudy
5:00 PM 84.2 °F 92.3 °F 75.2 °F 74% 29.74 in 6.2 mi WSW 8.1 mph - N/A   Mostly Cloudy
5:30 PM 84.2 °F 92.3 °F 75.2 °F 74% 29.74 in 6.2 mi WSW 5.8 mph - N/A   Mostly Cloudy
6:00 PM 82.4 °F 89.5 °F 75.2 °F 79% 29.77 in 6.2 mi WSW 3.5 mph - N/A   Mostly Cloudy
6:30 PM 82.4 °F 89.5 °F 75.2 °F 79% 29.77 in 5.0 mi WSW 3.5 mph - N/A   Mostly Cloudy
7:00 PM 85 °F - 76 °F 68% 29.73 in 6 mi Calm Calm - -   Scattered Clouds
7:00 PM 82.4 °F 89.5 °F 75.2 °F 79% 29.80 in 5.0 mi WSW 5.8 mph - N/A   Mostly Cloudy
7:30 PM 82.4 °F 89.5 °F 75.2 °F 79% 29.80 in 6.2 mi Calm Calm - N/A   Mostly Cloudy
8:00 PM 82.4 °F 89.5 °F 75.2 °F 79% 29.80 in 6.2 mi Calm Calm - N/A   Mostly Cloudy
8:30 PM 82.4 °F 89.5 °F 75.2 °F 79% 29.83 in 6.2 mi Variable 2.3 mph - N/A   Mostly Cloudy
9:00 PM 80.6 °F 86.2 °F 75.2 °F 84% 29.83 in 5.6 mi Calm Calm - N/A   Mostly Cloudy
9:30 PM 80.6 °F 86.2 °F 75.2 °F 84% 29.83 in 5.6 mi Variable 3.5 mph - N/A   Mostly Cloudy
10:00 PM 82.4 °F 88.2 °F 73.4 °F 74% 29.86 in 5.6 mi Variable 3.5 mph - N/A   Mostly Cloudy
10:30 PM 82.4 °F 88.2 °F 73.4 °F 74% 29.86 in 5.6 mi Variable 4.6 mph - N/A   Mostly Cloudy
11:00 PM 82.4 °F 88.2 °F 73.4 °F 74% 29.86 in 5.6 mi Variable 3.5 mph - N/A   Mostly Cloudy
11:30 PM 82.4 °F 88.2 °F 73.4 °F 74% 29.83 in 5.6 mi WSW 8.1 mph - N/A   Mostly Cloudy